"Pseudo-MPEC" for C0MQ8C5

Created 2023 Nov 27 8:22:02 UT using Find_Orb

Click here for an explanation of pseudo-MPECs

 
 Astrometry: 
     C0MQ8C5* C2023 11 15.29935402 57 34.427+29 18 36.97   ~BF87 22.54GVNEOCPV00
     C0MQ8C5  C2023 11 15.30576302 57 33.847+29 18 12.67   ~BF87 22.40GVNEOCPV00
     C0MQ8C5  C2023 11 15.31126802 57 33.390+29 17 51.58   ~BF87       VNEOCPV00
     C0MQ8C5  C2023 11 15.31677002 57 32.918+29 17 30.26   ~BF87 22.45GVNEOCPV00
     C0MQ8C5 KC2023 11 15.34913202 57 30.068+29 15 25.05   ~BF97 22.3 GVNEOCPH01
     C0MQ8C5  C2023 11 15.35344402 57 29.703+29 15 08.38   ~BF97 22.5 GVNEOCPH01
     C0MQ8C5  C2023 11 15.36480802 57 28.742+29 14 24.62   ~BF97 22.2 GVNEOCPH01
     C0MQ8C5  C2023 11 15.37068202 57 28.252+29 14 01.98   ~BF97 22.8 GVNEOCPH01

Station data:
(H01) Magdalena Ridge Observatory, Socorro  (N33.984833 W107.189333)  US/New
   Mexico.  Observers W. H. Ryan, E. V. Ryan. Measurer W. H. Ryan. 2.4-m
   f/8.9 reflector + CCD.
(V00) Kitt Peak-Bok  (N31.963125 W111.600190)  US/Arizona.  Observers T. A.
   Pruyne, B. M. Africano, E. J. Christensen, G. A. Farneth, D. C. Fuls, A.
   R. Gibbs, A. D. Grauer, H. Gröller, J. A. Johnson, R. A. Kowalski, S. M.
   Larson, G. J. Leonard, D. Rankin, R. L. Seaman, F. C. Shelly, K. W.
   Wierzchoś. 2.25-m reflector + 4x4K mosaic CCD.

Orbital elements:  C0MQ8C5
   Perihelion 2023 Aug 30.36618 +/- 75.8 TT =  8:47:18 (JD 2460186.86618)
Epoch 2023 Nov 15.0 TT = JDT 2460263.5   Earth MOID: 0.0543   Ma: 0.0754
M   9.24606392 +/- 32               (J2000 ecliptic)             AutoNEOCP
n   0.12065253 +/- 0.186            Peri.   75.56624 +/- 70
a   4.05612900 +/- 4.18             Node   239.56825 +/- 5.2
e   0.8187421 +/- 0.279             Incl.   26.24604 +/- 17
P   8.17                   H 22.97  G  0.15   U 11.6  SR
q 0.73520538 +/- 0.373    Q 7.37705262 +/- 36.4
From 8 observations 2023 Nov. 15 (1.7 hr); mean residual 0".10
Residuals in arcseconds: 
231115 V00  .15+  .21-    231115 V00  .04+  .03-    231115 H01  .01-  .02-    
231115 V00  .20-  .10+    231115 H01  .03-  .06+    231115 H01  .06+  .04-    
231115 V00  .02+  .15+    231115 H01  .02-  .01-    

Ephemerides (geocentric):
Date (UTC) HH   RA             Dec           delta  r     elong  mag " sig PA
---- --------  ------------   ------------  ------ ------ -----  --- --------
2023 11 27 08  02 47 42.739   +19 28 41.19  .63556 1.6004 160.6 23.7 419' 171
2023 11 27 09  02 47 41.675   +19 27 10.63  .63619 1.6009 160.6 23.7 423' 171
2023 11 27 10  02 47 40.616   +19 25 40.25  .63682 1.6014 160.5 23.7 428' 171
2023 11 27 11  02 47 39.563   +19 24 10.06  .63745 1.6019 160.5 23.7 432' 171
2023 11 27 12  02 47 38.515   +19 22 40.05  .63808 1.6024 160.5 23.7 437' 171
2023 11 27 13  02 47 37.472   +19 21 10.22  .63871 1.6029 160.4 23.7 442' 171
2023 11 27 14  02 47 36.435   +19 19 40.58  .63935 1.6034 160.4 23.7 446' 171
2023 11 27 15  02 47 35.404   +19 18 11.12  .63998 1.6039 160.3 23.8 451' 171
2023 11 27 16  02 47 34.378   +19 16 41.84  .64061 1.6044 160.3 23.8 456' 171
2023 11 27 17  02 47 33.357   +19 15 12.75  .64124 1.6048 160.2 23.8 461' 171
2023 11 27 18  02 47 32.341   +19 13 43.84  .64188 1.6053 160.2 23.8 466' 171
2023 11 27 19  02 47 31.331   +19 12 15.11  .64251 1.6058 160.1 23.8 471' 171
2023 11 27 20  02 47 30.327   +19 10 46.56  .64314 1.6063 160.1 23.8 476' 171
2023 11 27 21  02 47 29.327   +19 09 18.19  .64378 1.6068 160.0 23.8 481' 171
2023 11 27 22  02 47 28.333   +19 07 50.00  .64441 1.6073 160.0 23.8 486' 171
2023 11 27 23  02 47 27.344   +19 06 22.00  .64505 1.6078 159.9 23.8 491' 171
2023 11 28 00  02 47 26.361   +19 04 54.17  .64569 1.6083 159.9 23.8 496' 171
2023 11 28 01  02 47 25.383   +19 03 26.53  .64632 1.6088 159.8 23.8 501' 171
2023 11 28 02  02 47 24.410   +19 01 59.06  .64696 1.6093 159.8 23.8 506' 171
2023 11 28 03  02 47 23.442   +19 00 31.77  .64760 1.6098 159.7 23.8 511' 171
2023 11 28 04  02 47 22.480   +18 59 04.66  .64823 1.6103 159.7 23.8 516' 171
2023 11 28 05  02 47 21.523   +18 57 37.73  .64887 1.6108 159.6 23.8 521' 171
2023 11 28 06  02 47 20.571   +18 56 10.98  .64951 1.6113 159.6 23.8 527' 171
2023 11 28 07  02 47 19.625   +18 54 44.41  .65015 1.6118 159.5 23.8 532' 171
2023 11 28 08  02 47 18.683   +18 53 18.01  .65079 1.6123 159.5 23.8 537' 171
2023 11 28 09  02 47 17.747   +18 51 51.79  .65143 1.6128 159.4 23.8 542' 171
2023 11 28 10  02 47 16.816   +18 50 25.75  .65207 1.6133 159.4 23.8 548' 171
2023 11 28 11  02 47 15.891   +18 48 59.88  .65271 1.6138 159.3 23.8 553' 171
2023 11 28 12  02 47 14.970   +18 47 34.20  .65335 1.6143 159.3 23.8 558' 171
2023 11 28 13  02 47 14.055   +18 46 08.68  .65399 1.6148 159.2 23.8 564' 171
2023 11 28 14  02 47 13.145   +18 44 43.34  .65463 1.6153 159.2 23.8 569' 171
2023 11 28 15  02 47 12.240   +18 43 18.18  .65528 1.6158 159.1 23.8 575' 171
2023 11 28 16  02 47 11.340   +18 41 53.19  .65592 1.6163 159.1 23.8 580' 171
2023 11 28 17  02 47 10.445   +18 40 28.38  .65656 1.6168 159.0 23.9 585' 170
2023 11 28 18  02 47 09.556   +18 39 03.74  .65721 1.6173 159.0 23.9 591' 170
2023 11 28 19  02 47 08.671   +18 37 39.27  .65785 1.6178 158.9 23.9 596' 170
2023 11 28 20  02 47 07.792   +18 36 14.98  .65849 1.6182 158.9 23.9 602' 170
2023 11 28 21  02 47 06.918   +18 34 50.86  .65914 1.6187 158.8 23.9 607' 170
2023 11 28 22  02 47 06.048   +18 33 26.92  .65978 1.6192 158.8 23.9 613' 170
2023 11 28 23  02 47 05.184   +18 32 03.14  .66043 1.6197 158.7 23.9 618' 170
2023 11 29 00  02 47 04.325   +18 30 39.54  .66108 1.6202 158.7 23.9 624' 170
2023 11 29 01  02 47 03.472   +18 29 16.11  .66172 1.6207 158.6 23.9 629' 170
2023 11 29 02  02 47 02.623   +18 27 52.86  .66237 1.6212 158.6 23.9 635' 170
2023 11 29 03  02 47 01.779   +18 26 29.77  .66302 1.6217 158.5 23.9 641' 170
2023 11 29 04  02 47 00.940   +18 25 06.85  .66366 1.6222 158.5 23.9 646' 170
2023 11 29 05  02 47 00.106   +18 23 44.11  .66431 1.6227 158.4 23.9 652' 170
2023 11 29 06  02 46 59.278   +18 22 21.54  .66496 1.6232 158.4 23.9 657' 170
2023 11 29 07  02 46 58.454   +18 20 59.13  .66561 1.6237 158.3 23.9 663' 170